TimeAKST,TemperatureF,Dew PointF,Humidity,Sea Level PressureIn,VisibilityMPH,Wind Direction,Wind SpeedMPH,Gust SpeedMPH,PrecipitationIn,Events,Conditions,WindDirDegrees,DateUTC
12:53 AM,5.0,-11.9,46,30.19,10.0,North,15.0,-,N/A,,Clear,360,2013-01-25 09:53:00
1:53 AM,5.0,-11.9,46,30.21,10.0,North,16.1,-,N/A,,Clear,360,2013-01-25 10:53:00
3:53 AM,6.1,-11.0,45,30.21,10.0,North,17.3,-,N/A,,Clear,10,2013-01-25 12:53:00
4:53 AM,6.1,-9.9,48,30.22,10.0,North,11.5,-,N/A,,Partly Cloudy,360,2013-01-25 13:53:00
5:53 AM,6.1,-11.9,44,30.22,10.0,NNW,6.9,-,N/A,,Partly Cloudy,330,2013-01-25 14:53:00
6:53 AM,1.9,-11.9,52,30.22,10.0,Calm,Calm,-,N/A,,Partly Cloudy,0,2013-01-25 15:53:00
7:53 AM,-2.0,-14.1,57,30.21,10.0,Calm,Calm,-,N/A,,Partly Cloudy,0,2013-01-25 16:53:00
8:53 AM,-0.9,-13.0,57,30.23,10.0,Calm,Calm,-,N/A,,Partly Cloudy,0,2013-01-25 17:53:00
9:53 AM,-4.0,-13.0,65,30.22,10.0,Calm,Calm,-,N/A,,Clear,0,2013-01-25 18:53:00
10:53 AM,-4.0,-13.0,65,30.24,10.0,Calm,Calm,-,N/A,,Clear,0,2013-01-25 19:53:00
11:53 AM,1.0,-11.0,57,30.23,10.0,Variable,3.5,-,N/A,,Clear,0,2013-01-25 20:53:00
12:53 PM,-6.0,-15.0,65,30.22,10.0,West,5.8,-,N/A,,Clear,260,2013-01-25 21:53:00
1:53 PM,-2.0,-9.4,71,30.23,10.0,Calm,Calm,-,N/A,,Clear,0,2013-01-25 22:53:00
2:53 PM,3.0,-9.4,56,30.23,10.0,Calm,Calm,-,N/A,,Clear,0,2013-01-25 23:53:00
3:53 PM,1.9,-9.4,59,30.23,10.0,North,5.8,-,N/A,,Clear,350,2013-01-26 00:53:00
4:53 PM,5.0,-8.0,55,30.22,10.0,NNE,20.7,-,N/A,,Clear,20,2013-01-26 01:53:00
5:53 PM,3.0,-9.0,57,30.22,10.0,NNE,17.3,-,N/A,,Clear,20,2013-01-26 02:53:00
6:53 PM,1.9,-11.0,55,30.23,10.0,North,12.7,-,N/A,,Clear,350,2013-01-26 03:53:00
7:53 PM,1.9,-11.9,52,30.22,10.0,NNW,11.5,-,N/A,,Clear,340,2013-01-26 04:53:00
8:53 PM,5.0,-11.9,46,30.23,10.0,NNW,5.8,-,N/A,,Clear,340,2013-01-26 05:53:00
9:53 PM,6.1,-11.0,45,30.23,10.0,North,9.2,23.0,N/A,,Clear,360,2013-01-26 06:53:00
10:53 PM,3.0,-13.0,47,30.23,10.0,WNW,6.9,-,N/A,,Clear,290,2013-01-26 07:53:00
11:53 PM,5.0,-13.0,43,30.24,10.0,WNW,6.9,-,N/A,,Clear,300,2013-01-26 08:53:00